Temperature
17 17 16 16 16 16 16 16 16 16 16 16 16 16 16 16 16 17 16 17 17 17 17 16 16 16 16 16 16 16 16 16 16 16 16 16 16 16 16 16 16 16 15
17 16 16 16 16 16 16 16 16 16 16 16 16 16 16 16 16 16 16 17 17 17 16 16 16 16 16 16 16 16 16 16 16 16 16 16 16 16 16 16 16 15 15
17 16 16 16 16 16 16 16 16 16 16 16 16 16 16 16 16 16 16 16 16 16 16 16 16 16 16 16 16 16 16 16 16 16 16 16 16 16 16 16 16 15 15
17 16 16 16 16 16 16 16 16 16 16 16 16 16 16 16 16 16 16 16 16 16 16 16 16 16 16 16 16 16 16 16 16 16 16 16 16 16 16 16 16 16 15
16 16 16 16 16 16 16 16 16 16 16 16 16 16 16 16 16 16 16 16 16 16 16 16 16 16 16 16 16 16 16 16 16 16 16 16 16 16 16 16 16 15 15
16 16 16 16 16 16 15 15 15 15 16 16 17 16 16 16 16 16 16 16 16 16 16 16 16 16 16 16 16 16 16 16 16 16 16 16 16 16 16 16 15 15 15
16 16 16 16 15 15 15 15 15 15 16 16 16 16 16 16 16 16 16 16 16 16 16 16 16 16 16 16 16 16 16 16 16 16 16 16 16 16 15 15 15 15 15
16 16 15 15 15 15 15 15 15 16 16 16 16 17 17 17 16 16 16 16 16 16 16 16 15 15 15 15 15 16 15 15 15 15 15 15 15 15 15 15 15 15 15
16 15 15 15 15 15 15 15 15 15 16 16 16 17 18 18 18 17 16 16 16 16 16 16 15 15 15 15 15 15 15 15 15 15 15 15 15 15 15 15 15 15 15
15 15 15 15 15 15 15 15 15 15 15 16 16 16 16 17 18 18 17 16 16 16 16 16 16 15 15 15 15 15 15 15 15 15 15 15 15 15 15 15 15 15 15
16 15 15 15 15 15 15 15 15 15 15 16 16 16 16 16 17 17 18 17 17 16 16 16 16 16 15 15 15 15 15 15 15 15 15 15 15 15 15 15 15 15 15
15 15 15 15 15 15 15 15 14 15 15 15 15 16 16 17 17 17 18 17 17 17 16 16 16 16 15 15 15 15 15 15 15 15 15 14 14 14 14 14 14 14 14
16 16 15 15 15 15 15 15 15 15 14 14 15 15 16 16 16 17 17 18 17 17 16 16 16 16 16 15 15 15 15 15 15 14 14 14 14 14 14 14 14 14 14
16 16 16 15 15 15 15 15 14 14 14 14 14 15 15 15 16 16 16 17 17 18 17 17 16 16 15 15 15 15 14 15 14 14 14 14 14 14 14 14 14 14 14
16 16 16 15 15 15 15 15 15 14 14 14 14 14 15 15 15 15 15 16 17 18 18 17 16 16 15 15 15 15 14 14 14 14 14 14 14 14 14 14 14 14 14
16 16 16 16 16 15 15 15 15 14 14 14 14 14 14 15 15 15 15 15 15 16 17 17 16 16 15 15 15 15 14 14 15 15 14 14 14 14 14 14 14 14 14
16 16 16 16 16 16 15 15 15 14 14 14 14 14 14 14 14 15 15 15 15 15 16 16 16 15 14 15 15 14 14 14 14 14 15 14 14 14 14 14 14 14 14
16 16 16 16 16 15 16 16 15 15 14 14 14 14 14 14 14 14 14 14 15 14 15 15 15 15 14 14 14 14 14 15 15 15 15 15 15 15 15 14 14 14 14
16 16 16 16 16 16 16 16 15 15 15 14 14 14 14 14 14 14 14 14 14 14 14 14 15 15 15 14 14 14 14 14 15 15 15 15 15 15 15 15 14 14 14
16 16 16 16 16 16 15 15 15 15 15 15 14 14 14 14 14 14 14 14 14 14 14 14 15 15 15 14 14 14 15 15 14 15 15 14 14 14 15 15 14 14 14
16 16 16 16 15 15 15 15 15 15 15 15 14 14 14 14 14 14 14 14 14 14 14 14 15 15 15 15 14 14 15 15 14 14 14 14 14 14 14 14 14 14 14
16 15 15 15 15 15 15 15 15 15 15 14 14 14 14 14 14 14 14 14 14 13 14 14 14 14 14 14 14 14 14 14 14 14 14 14 14 14 14 14 14 14 14
15 15 15 15 15 15 15 15 15 15 14 14 14 14 13 13 13 13 13 14 13 13 13 13 13 13 13 13 13 13 13 13 13 13 13 13 13 13 14 14 14 13 13
15 15 14 14 14 14 14 14 14 14 13 13 13 13 13 13 13 13 13 12 12 12 13 13 13 13 12 12 12 12 12 12 12 12 12 12 13 13 13 13 13 13 13
14 14 14 13 13 13 13 13 13 13 13 12 12 12 12 12 12 12 12 12 12 12 12 12 12 12 12 12 12 11 11 11 12 12 12 12 12 12 13 13 13 12 12
13 13 13 12 12 12 12 12 12 12 12 11 11 11 11 11 11 11 11 11 11 11 11 11 11 11 11 11 10 10 10 10 11 11 12 11 11 11 12 12 12 12 12
Wind_Speed
3 3 3 2 2 3 4 3 2 2 2 3 3 4 3 3 3 4 6 8 8 8 8 8 8 8 8 8 9 9 9 9 9 9 9 9 9 9 8 8 8 7 7
4 3 4 3 2 2 1 2 2 3 2 2 3 3 3 4 4 4 5 8 8 8 8 8 8 8 8 9 9 9 9 10 10 10 10 9 9 9 9 9 8 8 8
5 4 3 4 2 2 3 2 3 3 3 3 3 3 3 3 4 4 4 4 8 10 9 8 8 9 9 9 10 10 10 10 11 11 11 11 10 10 10 10 9 9 9
5 4 3 3 3 3 3 2 3 3 3 3 3 2 3 3 4 4 5 5 5 6 10 9 8 9 9 10 10 11 11 11 12 12 13 12 12 12 12 11 11 10 10
6 5 3 3 3 3 2 3 3 3 3 3 4 3 3 3 3 4 4 5 5 5 6 10 9 10 10 10 11 11 12 12 13 13 13 13 14 14 14 13 13 13 12
6 5 4 4 4 3 3 2 2 2 2 3 3 3 2 2 2 2 4 5 5 6 6 7 9 9 10 9 10 11 11 12 13 13 13 14 14 15 16 15 15 15 14
6 5 3 4 4 3 3 4 4 5 4 3 4 4 4 3 3 3 2 3 4 4 5 6 6 5 8 10 9 9 10 11 12 13 13 14 15 15 16 17 17 17 17
7 6 4 4 4 3 4 4 3 3 4 4 4 4 4 5 5 3 3 3 3 4 5 6 5 5 5 6 8 8 7 8 9 11 12 13 14 15 16 17 18 18 18
7 5 5 4 3 4 4 4 4 5 4 4 4 3 3 2 5 5 3 3 3 3 4 5 6 5 5 4 5 8 7 7 7 8 9 10 11 13 15 16 17 18 18
7 7 6 5 4 3 3 5 4 4 4 4 4 3 3 2 2 4 5 5 4 4 3 3 4 5 5 5 4 4 5 6 6 6 7 7 8 10 11 13 14 15 16
8 7 7 6 5 3 3 2 3 4 4 5 4 5 4 3 5 4 3 4 5 5 4 4 3 3 4 4 5 6 6 4 4 4 5 5 6 8 9 10 11 12 13
8 9 8 7 6 4 4 4 3 4 3 3 4 4 5 5 5 5 4 5 5 5 4 3 4 4 5 5 5 8 6 5 4 3 4 4 5 6 6 8 9 10 11
8 9 9 8 7 5 5 5 4 3 4 4 4 4 4 4 4 4 5 4 4 4 4 6 5 5 6 5 6 8 8 7 6 5 5 5 5 5 6 6 7 8 9
8 9 10 9 8 8 7 6 5 5 4 4 5 4 4 4 4 4 5 5 5 6 6 6 5 6 6 6 5 8 8 10 8 8 7 7 7 7 7 8 8 8 9
7 9 10 10 9 9 8 7 6 6 5 6 6 6 6 4 4 4 4 5 6 6 5 5 6 5 6 6 5 8 8 10 11 11 11 10 11 11 11 11 11 12 12
8 9 10 10 10 9 9 9 7 7 7 6 5 5 5 5 4 5 5 5 6 7 6 3 4 4 3 6 7 8 9 9 13 14 14 14 14 14 14 14 14 14 14
9 10 10 10 10 10 10 9 9 8 9 8 7 7 8 7 6 6 6 6 6 6 7 6 5 4 5 8 6 8 10 11 12 18 17 16 16 16 17 17 17 17 17
10 10 10 10 10 10 10 11 11 10 10 10 9 9 9 8 8 8 7 7 7 6 8 8 6 6 7 8 8 8 10 11 12 13 17 17 18 18 19 19 20 20 20
9 9 9 10 10 10 10 10 10 10 10 10 10 10 10 9 9 9 8 8 8 8 8 8 9 6 7 7 8 9 11 9 12 12 16 20 21 21 21 21 21 22 22
9 9 9 9 9 8 9 9 10 10 10 10 9 9 10 10 10 10 9 9 9 8 8 9 9 8 8 8 7 9 9 8 9 10 10 11 15 20 22 23 23 23 23
7 7 6 6 6 6 7 8 9 10 10 10 9 9 9 7 6 7 8 8 8 9 9 9 9 9 9 7 8 8 8 8 9 9 9 10 10 12 14 21 25 25 24
5 5 5 5 4 4 1 2 7 8 8 9 8 8 7 6 6 7 8 8 8 9 10 9 9 9 9 8 7 8 9 9 10 7 7 10 10 11 11 14 13 17 21
4 4 4 3 2 1 2 2 3 5 5 5 4 4 5 4 4 6 7 10 9 9 9 10 11 10 9 7 7 10 10 11 11 9 9 12 12 12 12 14 12 15 18
4 3 3 3 3 4 5 1 1 3 2 2 2 2 3 3 3 4 6 7 7 7 8 8 8 9 8 7 7 9 11 12 12 12 11 13 13 13 13 13 13 16 19
6 6 6 6 6 8 9 5 1 1 1 0 1 1 1 1 4 5 5 6 6 6 4 4 6 8 9 9 8 8 10 11 12 12 9 11 13 13 13 13 14 16 21
8 8 9 9 10 10 12 11 6 2 2 2 2 4 7 6 6 5 4 5 5 5 6 5 5 7 8 9 10 9 9 10 12 12 9 8 11 12 13 12 11 11 12
Wind_Direction
168 160 156 167 181 151 165 174 178 160 177 187 191 174 175 175 184 181 142 160 178 187 189 190 191 189 190 190 188 187 187 185 182 179 178 177 176 177 176 175 174 174 172
166 175 171 174 172 169 138 179 167 185 192 174 175 164 180 175 171 191 168 163 176 184 191 194 194 193 196 200 199 199 199 197 193 190 189 188 187 188 187 188 189 188 185
166 183 175 184 166 164 169 190 173 191 191 181 166 164 167 168 160 181 185 178 180 181 186 192 196 199 203 206 207 208 209 206 200 197 197 197 198 198 198 199 200 200 198
174 190 177 172 165 189 184 179 206 191 185 186 169 171 154 158 165 180 185 190 195 182 177 184 197 202 206 211 212 212 213 212 208 205 204 205 206 207 208 208 207 206 206
174 188 175 147 189 194 195 203 177 209 184 181 172 173 177 166 181 185 189 194 190 201 178 172 195 204 208 214 216 214 215 215 213 212 211 212 213 214 215 215 214 213 213
174 184 176 174 206 192 186 184 169 207 199 196 192 159 181 173 200 184 212 193 190 198 194 181 193 194 200 212 217 216 217 218 218 217 217 219 220 220 220 220 220 219 219
171 191 181 171 211 188 190 184 188 179 197 190 194 183 179 190 181 186 200 206 182 191 183 186 207 201 191 197 208 215 218 222 220 220 222 223 224 224 224 224 224 224 224
177 182 186 187 186 174 186 192 210 211 183 200 224 200 189 176 191 177 178 190 193 192 188 186 186 203 226 194 175 195 211 221 223 221 223 226 229 231 229 228 228 228 229
186 187 183 196 182 205 181 198 205 215 200 195 234 243 228 198 163 166 183 181 193 201 197 179 191 186 204 207 178 179 199 212 220 225 227 230 234 237 237 235 233 233 234
187 186 187 190 202 204 170 202 193 213 223 210 196 244 298 344 247 173 185 183 187 202 191 201 180 177 192 192 169 156 185 206 215 222 226 230 234 238 241 242 240 240 239
192 192 189 189 196 199 180 201 178 224 222 233 216 205 213 223 251 259 197 183 190 193 191 207 205 192 184 193 190 151 157 176 192 206 218 227 232 234 240 244 246 247 246
193 194 196 197 201 193 179 192 197 202 235 245 254 232 226 229 230 239 236 221 209 188 195 212 220 207 206 204 178 138 164 177 184 195 212 224 227 231 238 244 249 251 252
194 193 198 198 203 198 196 195 202 214 207 213 234 241 247 255 265 258 260 245 234 207 198 221 217 220 220 215 178 167 187 195 204 213 220 228 234 239 244 250 256 258 257
200 190 197 200 204 203 204 201 211 207 208 218 227 241 247 244 251 253 260 262 248 233 216 224 214 220 227 227 174 192 204 199 215 225 232 237 242 246 249 252 256 259 261
204 196 200 202 204 204 208 207 221 215 210 223 220 212 235 230 239 249 254 261 268 265 241 199 223 206 220 227 184 225 232 203 217 232 237 241 246 249 252 253 255 257 259
209 204 204 205 206 205 206 213 218 213 218 223 237 237 239 238 230 236 242 247 256 269 275 244 217 214 222 244 199 232 244 211 225 233 238 242 247 250 253 254 255 256 257
209 210 210 209 210 211 210 212 225 216 220 223 223 223 228 248 242 235 233 238 241 248 257 259 238 220 225 255 237 241 247 244 240 219 227 238 245 248 251 253 254 255 256
214 214 216 216 218 220 217 216 223 222 223 225 225 226 229 226 229 245 244 242 243 248 254 262 259 240 223 236 244 250 253 247 254 215 213 231 241 246 248 250 251 253 254
214 217 217 221 225 227 224 224 225 228 229 231 230 229 231 233 231 235 239 245 242 236 240 254 256 254 248 239 240 245 250 253 260 244 217 226 235 242 246 248 249 250 251
213 218 222 225 228 231 231 230 228 230 231 232 233 233 234 234 235 238 238 243 248 250 242 248 255 251 245 241 243 253 254 240 251 263 259 248 236 234 240 244 246 247 248
213 216 218 221 229 236 239 237 234 231 229 231 231 233 235 237 252 253 255 247 243 246 248 248 252 256 253 249 252 258 264 269 261 260 262 261 251 246 240 236 237 241 243
199 203 209 211 218 236 221 236 248 245 236 232 231 231 231 225 234 236 262 274 274 259 259 263 262 264 269 269 270 273 275 274 274 270 268 270 270 268 264 263 247 229 233
179 186 187 185 178 38 71 173 231 249 244 241 237 240 245 238 236 248 236 234 247 249 255 264 271 276 281 282 284 276 274 276 278 284 282 275 274 271 269 267 243 231 236
130 126 109 98 82 47 45 47 228 225 245 259 260 258 259 283 302 297 271 260 255 249 243 244 260 271 280 292 282 276 280 275 271 265 261 268 274 274 275 273 254 232 237
93 90 83 77 72 53 39 32 353 153 145 91 4 24 356 9 23 341 286 274 272 271 250 244 270 276 285 281 277 276 274 273 275 276 267 266 276 281 281 277 269 240 234
87 84 77 70 68 59 43 38 20 44 50 48 63 69 59 44 30 357 313 297 290 298 303 290 264 257 262 255 236 247 266 271 277 280 283 279 281 286 284 280 279 279 262
Height
1562 1563 1564 1564 1566 1567 1567 1568 1569 1570 1571 1572 1573 1574 1575 1576 1577 1578 1578 1578 1580 1581 1582 1583 1584 1585 1586 1587 1588 1589 1590 1591 1592 1593 1594 1594 1595 1596 1597 1597 1598 1598 1599
1561 1562 1563 1564 1565 1566 1567 1567 1568 1569 1571 1571 1572 1573 1574 1575 1576 1577 1578 1578 1579 1580 1581 1582 1583 1585 1586 1587 1588 1589 1590 1591 1592 1592 1593 1594 1595 1596 1596 1597 1598 1598 1599
1560 1561 1563 1564 1565 1565 1565 1567 1567 1569 1570 1571 1572 1573 1574 1574 1575 1576 1578 1578 1579 1579 1580 1581 1583 1584 1585 1586 1587 1588 1589 1590 1591 1592 1593 1593 1594 1595 1596 1596 1597 1598 1598
1559 1561 1562 1563 1563 1565 1565 1566 1567 1569 1570 1570 1571 1572 1573 1573 1574 1575 1577 1577 1579 1580 1580 1580 1581 1583 1583 1584 1585 1587 1588 1589 1590 1591 1592 1592 1593 1594 1595 1596 1596 1597 1598
1558 1560 1561 1562 1562 1564 1565 1566 1567 1568 1569 1570 1571 1571 1572 1573 1574 1575 1576 1577 1578 1578 1579 1579 1580 1581 1582 1583 1584 1585 1586 1587 1588 1589 1590 1591 1592 1593 1593 1594 1595 1596 1596
1557 1559 1560 1560 1562 1563 1563 1564 1565 1566 1568 1569 1570 1571 1572 1573 1573 1574 1575 1576 1577 1578 1579 1579 1579 1580 1581 1581 1582 1583 1584 1585 1586 1587 1588 1589 1590 1591 1592 1592 1593 1594 1595
1556 1557 1559 1559 1560 1562 1562 1563 1564 1565 1567 1568 1570 1571 1571 1572 1573 1573 1574 1575 1576 1576 1577 1577 1579 1579 1579 1580 1580 1581 1582 1582 1583 1584 1585 1586 1587 1588 1589 1590 1591 1592 1592
1555 1557 1557 1559 1560 1560 1561 1562 1563 1565 1566 1567 1569 1569 1570 1572 1572 1572 1573 1574 1574 1575 1576 1576 1577 1577 1579 1579 1578 1579 1579 1580 1581 1581 1582 1583 1584 1585 1586 1587 1588 1589 1590
1554 1556 1556 1558 1558 1560 1561 1561 1562 1564 1566 1566 1567 1569 1569 1569 1570 1572 1572 1573 1573 1574 1575 1575 1576 1576 1577 1577 1577 1577 1577 1578 1578 1579 1579 1580 1581 1581 1582 1583 1584 1585 1586
1553 1554 1555 1556 1557 1559 1559 1560 1561 1563 1564 1566 1566 1567 1568 1568 1569 1570 1571 1572 1572 1573 1574 1575 1575 1575 1575 1576 1575 1575 1575 1576 1576 1576 1576 1577 1577 1577 1578 1579 1580 1581 1582
1551 1553 1554 1555 1556 1558 1558 1559 1560 1561 1563 1565 1566 1567 1567 1568 1569 1569 1569 1571 1571 1572 1572 1573 1574 1574 1574 1574 1574 1573 1573 1573 1574 1574 1574 1574 1574 1574 1574 1575 1576 1577 1578
1550 1551 1553 1554 1555 1557 1557 1558 1559 1560 1561 1562 1564 1565 1566 1567 1568 1568 1568 1569 1570 1570 1571 1571 1572 1572 1573 1573 1573 1571 1571 1571 1571 1571 1571 1571 1571 1571 1571 1571 1572 1573 1573
1549 1550 1552 1553 1554 1555 1556 1557 1557 1559 1560 1560 1562 1564 1565 1565 1566 1567 1567 1567 1568 1568 1569 1569 1570 1570 1571 1571 1570 1570 1569 1569 1569 1569 1569 1569 1568 1568 1568 1568 1568 1569 1569
1547 1549 1550 1551 1553 1554 1555 1555 1557 1558 1558 1559 1560 1561 1562 1563 1564 1565 1566 1566 1566 1566 1566 1567 1568 1568 1568 1569 1568 1567 1568 1567 1567 1567 1566 1566 1566 1565 1565 1565 1565 1565 1565
1545 1546 1548 1549 1551 1552 1553 1554 1556 1556 1556 1557 1559 1559 1560 1561 1562 1563 1563 1564 1565 1564 1563 1564 1565 1565 1565 1566 1565 1565 1566 1565 1564 1564 1564 1563 1563 1562 1562 1561 1561 1561 1561
1542 1544 1546 1547 1549 1550 1551 1552 1553 1554 1554 1555 1556 1557 1557 1560 1560 1560 1561 1561 1562 1563 1562 1562 1562 1563 1562 1563 1562 1562 1562 1561 1561 1560 1560 1560 1559 1559 1558 1558 1557 1557 1557
1539 1541 1543 1545 1546 1548 1549 1549 1551 1552 1552 1553 1554 1554 1555 1556 1557 1558 1558 1559 1559 1560 1560 1560 1560 1559 1558 1558 1559 1558 1558 1558 1558 1556 1556 1555 1555 1554 1554 1553 1553 1553 1552
1536 1538 1540 1542 1544 1545 1546 1547 1548 1549 1549 1550 1551 1551 1552 1553 1553 1554 1555 1556 1556 1556 1557 1557 1557 1557 1555 1554 1554 1554 1554 1554 1554 1553 1551 1550 1550 1549 1549 1548 1548 1547 1547
1533 1535 1537 1538 1540 1542 1543 1544 1545 1545 1546 1547 1548 1548 1549 1550 1550 1551 1551 1552 1553 1553 1552 1553 1553 1553 1552 1552 1551 1550 1550 1548 1549 1549 1546 1545 1544 1544 1543 1542 1542 1541 1541
1529 1531 1533 1535 1536 1538 1539 1540 1541 1541 1542 1543 1543 1544 1545 1545 1546 1546 1547 1547 1548 1549 1549 1548 1548 1548 1548 1547 1546 1546 1546 1545 1544 1544 1543 1541 1539 1538 1537 1536 1536 1535 1535
1525 1527 1529 1531 1532 1534 1535 1536 1537 1537 1538 1538 1539 1539 1540 1541 1541 1542 1543 1544 1544 1544 1544 1544 1544 1543 1543 1543 1542 1541 1541 1540 1539 1538 1537 1536 1535 1533 1531 1530 1529 1528 1528
1522 1524 1525 1527 1528 1529 1530 1531 1532 1533 1533 1534 1534 1535 1535 1535 1536 1537 1537 1538 1538 1539 1539 1539 1538 1538 1537 1537 1537 1536 1535 1534 1534 1534 1532 1530 1530 1528 1526 1525 1523 1521 1520
1519 1521 1522 1523 1524 1525 1525 1526 1527 1527 1528 1529 1529 1529 1530 1531 1531 1531 1532 1532 1532 1532 1532 1532 1532 1532 1531 1531 1530 1530 1529 1528 1527 1526 1525 1523 1522 1520 1519 1518 1516 1514 1513
1516 1518 1519 1520 1520 1521 1522 1522 1523 1523 1524 1524 1524 1525 1525 1525 1525 1526 1526 1526 1526 1526 1526 1526 1525 1525 1525 1524 1523 1523 1522 1520 1518 1518 1517 1515 1514 1513 1512 1510 1508 1505 1504
1515 1516 1517 1517 1518 1518 1519 1519 1519 1520 1520 1520 1521 1520 1520 1520 1520 1520 1521 1520 1520 1520 1520 1519 1519 1518 1517 1517 1516 1516 1515 1514 1513 1512 1511 1509 1507 1505 1504 1502 1500 1497 1495
1514 1515 1516 1516 1517 1517 1517 1517 1517 1518 1518 1518 1517 1516 1516 1515 1515 1515 1515 1515 1515 1514 1514 1513 1512 1511 1510 1510 1509 1508 1508 1507 1505 1505 1504 1502 1500 1498 1495 1494 1493 1491 1488